Погода в Кисловке

Россия / Томская область     56°24′47″N   84°52′14″E
темп.,
°C
ветер,
м/с
пор.,
м/с
влажн.,
%
обл.,
%
осадки,
мм/ч
давл.,
гПа
погр.,
м
17 мая, пн
пн1701:00+9св2394100 0.0 1015134
04:00+9ссв2392100 0.0 1014113
07:00+9с2385100 0.0 1015184
10:00+14с246245 0.0 1015746
13:00+16ссз3355100 0.0 10151088
16:00+17ссз2456100 0.0 10141177
19:00+17сз135926 0.0 10141040
22:00+12ююв237922 0.0 101261
18 мая, вт
вт1801:00+10ююв268796 0.0 1010134
04:00+10ю31196100 0.1 1006248
07:00+13ююз41197100 2.9 1001400
10:00+18з7127350 0.4 9981367
13:00+12сз9168398 0.9 1002868
16:00+12ссз5779100 0.0 1006804
19:00+10ссв4677100 0.1 1009806
22:00+9св3782100 0.0 1010540
19 мая, ср
ср1901:00+7св2589100 0.0 1010186
04:00+7с258889 0.1 1010210
07:00+6ссв37631 0.1 1010264
10:00+10ссв46385 0.0 10101179
13:00+12с563260 0.0 10112307
16:00+11с7728100 0.0 10112674
19:00+10с573373 0.0 10122737
22:00+4с375194 0.0 1013166
20 мая, чт
чт2001:00+4с375398 0.0 1014754
04:00+1ссз496257 0.0 1014479
07:00+1с48595 0.0 1016446
10:00+5с5734100 0.0 10162408
13:00+8с5633100 0.0 10162331
16:00+9ссз5730100 0.0 10162482
19:00+10ссз473391 0.0 10172356
22:00+5сз38500 0.0 1018151
21 мая, пт
пт2101:00+2сз255950 0.0 101984
04:00+1сз226014 0.0 102027
07:00+4з135199 0.0 1021131
10:00+9зюз3435100 0.0 10211183
13:00+11зюз4532100 0.0 10211622
16:00+13зюз462887 0.0 10202038
19:00+13юз3536100 0.0 10191939
22:00+8ю395299 0.0 1019219